Year,Month,Day,Hour,Minute,Value (Times are PST for temperature in C)
2016,09,26,00,00,13.80
2016,09,26,00,01,13.80
2016,09,26,00,02,13.80
2016,09,26,00,03,13.80
2016,09,26,00,04,13.80
2016,09,26,00,05,13.80
2016,09,26,00,06,13.80
2016,09,26,00,07,13.80
2016,09,26,00,08,13.80
2016,09,26,00,09,13.90
2016,09,26,00,10,13.90
2016,09,26,00,11,13.90
2016,09,26,00,12,13.90
2016,09,26,00,13,13.90
2016,09,26,00,14,13.90
2016,09,26,00,15,13.90
2016,09,26,00,16,13.90
2016,09,26,00,17,13.90
2016,09,26,00,18,13.90
2016,09,26,00,19,13.90
2016,09,26,00,20,13.90
2016,09,26,00,21,13.80
2016,09,26,00,22,13.80
2016,09,26,00,23,13.80
2016,09,26,00,24,13.80
2016,09,26,00,25,13.80
2016,09,26,00,26,13.80
2016,09,26,00,27,13.80
2016,09,26,00,28,13.80
2016,09,26,00,29,13.80
2016,09,26,00,30,13.80
2016,09,26,00,31,13.80
2016,09,26,00,32,13.80
2016,09,26,00,33,13.80
2016,09,26,00,34,13.80
2016,09,26,00,35,13.80
2016,09,26,00,36,13.80
2016,09,26,00,37,13.80
2016,09,26,00,38,13.80
2016,09,26,00,39,13.80
2016,09,26,00,40,13.80
2016,09,26,00,41,13.80
2016,09,26,00,42,13.80
2016,09,26,00,43,13.80
2016,09,26,00,44,13.80
2016,09,26,00,45,13.80
2016,09,26,00,46,13.80
2016,09,26,00,47,13.80
2016,09,26,00,48,13.80
2016,09,26,00,49,13.80
2016,09,26,00,50,13.80
2016,09,26,00,51,13.80
2016,09,26,00,52,13.80
2016,09,26,00,53,13.80
2016,09,26,00,54,13.80
2016,09,26,00,55,13.80
2016,09,26,00,56,13.70
2016,09,26,00,57,13.70
2016,09,26,00,58,13.70
2016,09,26,00,59,13.70
2016,09,26,01,00,13.70
2016,09,26,01,01,13.70
2016,09,26,01,02,13.70
2016,09,26,01,03,13.70
2016,09,26,01,04,13.70
2016,09,26,01,05,13.70
2016,09,26,01,06,13.70
2016,09,26,01,07,13.70
2016,09,26,01,08,13.70
2016,09,26,01,09,13.70
2016,09,26,01,10,13.70
2016,09,26,01,11,13.70
2016,09,26,01,12,13.70
2016,09,26,01,13,13.70
2016,09,26,01,14,13.70
2016,09,26,01,15,13.70
2016,09,26,01,16,13.70
2016,09,26,01,17,13.70
2016,09,26,01,18,13.70
2016,09,26,01,19,13.70
2016,09,26,01,20,13.70
2016,09,26,01,21,13.60
2016,09,26,01,22,13.60
2016,09,26,01,23,13.60
2016,09,26,01,24,13.60
2016,09,26,01,25,13.60
2016,09,26,01,26,13.60
2016,09,26,01,27,13.60
2016,09,26,01,28,13.60
2016,09,26,01,29,13.60
2016,09,26,01,30,13.60
2016,09,26,01,31,13.50
2016,09,26,01,32,13.50
2016,09,26,01,33,13.50
2016,09,26,01,34,13.50
2016,09,26,01,35,13.50
2016,09,26,01,36,13.50
2016,09,26,01,37,13.50
2016,09,26,01,38,13.50
2016,09,26,01,39,13.60
2016,09,26,01,40,13.60
2016,09,26,01,41,13.50
2016,09,26,01,42,13.50
2016,09,26,01,43,13.50
2016,09,26,01,44,13.50
2016,09,26,01,45,13.60
2016,09,26,01,46,13.60
2016,09,26,01,47,13.50
2016,09,26,01,48,13.50
2016,09,26,01,49,13.50
2016,09,26,01,50,13.50
2016,09,26,01,51,13.50
2016,09,26,01,52,13.50
2016,09,26,01,53,13.50
2016,09,26,01,54,13.50
2016,09,26,01,55,13.50
2016,09,26,01,56,13.50
2016,09,26,01,57,13.40
2016,09,26,01,58,13.40
2016,09,26,01,59,13.40
2016,09,26,02,00,13.40
2016,09,26,02,01,13.40
2016,09,26,02,02,13.40
2016,09,26,02,03,13.40
2016,09,26,02,04,13.40
2016,09,26,02,05,13.40
2016,09,26,02,06,13.40
2016,09,26,02,07,13.30
2016,09,26,02,08,13.30
2016,09,26,02,09,13.30
2016,09,26,02,10,13.30
2016,09,26,02,11,13.30
2016,09,26,02,12,13.30
2016,09,26,02,13,13.30
2016,09,26,02,14,13.30
2016,09,26,02,15,13.30
2016,09,26,02,16,13.30
2016,09,26,02,17,13.30
2016,09,26,02,18,13.30
2016,09,26,02,19,13.30
2016,09,26,02,20,13.30
2016,09,26,02,21,13.30
2016,09,26,02,22,13.20
2016,09,26,02,23,13.20
2016,09,26,02,24,13.20
2016,09,26,02,25,13.20
2016,09,26,02,26,13.20
2016,09,26,02,27,13.20
2016,09,26,02,28,13.20
2016,09,26,02,29,13.20
2016,09,26,02,30,13.20
2016,09,26,02,31,13.20
2016,09,26,02,32,13.20
2016,09,26,02,33,13.20
2016,09,26,02,34,13.20
2016,09,26,02,35,13.20
2016,09,26,02,36,13.20
2016,09,26,02,37,13.20
2016,09,26,02,38,13.20
2016,09,26,02,39,13.20
2016,09,26,02,40,13.20
2016,09,26,02,41,13.20
2016,09,26,02,42,13.20
2016,09,26,02,43,13.20
2016,09,26,02,44,13.20
2016,09,26,02,45,13.20
2016,09,26,02,46,13.20
2016,09,26,02,47,13.20
2016,09,26,02,48,13.10
2016,09,26,02,49,13.10
2016,09,26,02,50,13.10
2016,09,26,02,51,13.10
2016,09,26,02,52,13.10
2016,09,26,02,53,13.10
2016,09,26,02,54,13.10
2016,09,26,02,55,13.10
2016,09,26,02,56,13.10
2016,09,26,02,57,13.10
2016,09,26,02,58,13.10
2016,09,26,02,59,13.10
2016,09,26,03,00,13.10
2016,09,26,03,01,13.10
2016,09,26,03,02,13.10
2016,09,26,03,03,13.10
2016,09,26,03,04,13.00
2016,09,26,03,05,13.00
2016,09,26,03,06,13.00
2016,09,26,03,07,12.90
2016,09,26,03,08,12.90
2016,09,26,03,09,12.90
2016,09,26,03,10,12.90
2016,09,26,03,11,12.90
2016,09,26,03,12,12.90
2016,09,26,03,13,12.90
2016,09,26,03,14,12.90
2016,09,26,03,15,12.90
2016,09,26,03,16,12.90
2016,09,26,03,17,12.90
2016,09,26,03,18,12.90
2016,09,26,03,19,12.90
2016,09,26,03,20,12.90
2016,09,26,03,21,12.90
2016,09,26,03,22,12.90
2016,09,26,03,23,12.90
2016,09,26,03,24,13.00
2016,09,26,03,25,13.00
2016,09,26,03,26,13.00
2016,09,26,03,27,13.00
2016,09,26,03,28,13.00
2016,09,26,03,29,13.00
2016,09,26,03,30,13.00
2016,09,26,03,31,13.00
2016,09,26,03,32,13.00
2016,09,26,03,33,13.00
2016,09,26,03,34,12.90
2016,09,26,03,35,12.90
2016,09,26,03,36,12.90
2016,09,26,03,37,12.90
2016,09,26,03,38,12.90
2016,09,26,03,39,12.90
2016,09,26,03,40,12.80
2016,09,26,03,41,12.80
2016,09,26,03,42,12.80
2016,09,26,03,43,12.80
2016,09,26,03,44,12.80
2016,09,26,03,45,12.80
2016,09,26,03,46,12.80
2016,09,26,03,47,12.80
2016,09,26,03,48,12.80
2016,09,26,03,49,12.80
2016,09,26,03,50,12.80
2016,09,26,03,51,12.80
2016,09,26,03,52,12.80
2016,09,26,03,53,12.80
2016,09,26,03,54,12.80
2016,09,26,03,55,12.80
2016,09,26,03,56,12.80
2016,09,26,03,57,12.80
2016,09,26,03,58,12.80
2016,09,26,03,59,12.80
2016,09,26,04,00,12.80
2016,09,26,04,01,12.80
2016,09,26,04,02,12.80
2016,09,26,04,03,12.80
2016,09,26,04,04,12.80
2016,09,26,04,05,12.80
2016,09,26,04,06,12.80
2016,09,26,04,07,12.80
2016,09,26,04,08,12.70
2016,09,26,04,09,12.70
2016,09,26,04,10,12.70
2016,09,26,04,11,12.70
2016,09,26,04,12,12.70
2016,09,26,04,13,12.70
2016,09,26,04,14,12.70
2016,09,26,04,15,12.70
2016,09,26,04,16,12.70
2016,09,26,04,17,12.70
2016,09,26,04,18,12.70
2016,09,26,04,19,12.70
2016,09,26,04,20,12.70
2016,09,26,04,21,12.80
2016,09,26,04,22,12.80
2016,09,26,04,23,12.80
2016,09,26,04,24,12.80
2016,09,26,04,25,12.70
2016,09,26,04,26,12.70
2016,09,26,04,27,12.70
2016,09,26,04,28,12.70
2016,09,26,04,29,12.70
2016,09,26,04,30,12.70
2016,09,26,04,31,12.70
2016,09,26,04,32,12.70
2016,09,26,04,33,12.70
2016,09,26,04,34,12.70
2016,09,26,04,35,12.70
2016,09,26,04,36,12.70
2016,09,26,04,37,12.70
2016,09,26,04,38,12.60
2016,09,26,04,39,12.60
2016,09,26,04,40,12.60
2016,09,26,04,41,12.60
2016,09,26,04,42,12.60
2016,09,26,04,43,12.60
2016,09,26,04,44,12.60
2016,09,26,04,45,12.60
2016,09,26,04,46,12.60
2016,09,26,04,47,12.60
2016,09,26,04,48,12.60
2016,09,26,04,49,12.60
2016,09,26,04,50,12.60
2016,09,26,04,51,12.60
2016,09,26,04,52,12.60
2016,09,26,04,53,12.60
2016,09,26,04,54,12.60
2016,09,26,04,55,12.60
2016,09,26,04,56,12.60
2016,09,26,04,57,12.60
2016,09,26,04,58,12.60
2016,09,26,04,59,12.60
2016,09,26,05,00,12.60
2016,09,26,05,01,12.60
2016,09,26,05,02,12.60
2016,09,26,05,03,12.60
2016,09,26,05,04,12.60
2016,09,26,05,05,12.60
2016,09,26,05,06,12.60
2016,09,26,05,07,12.60
2016,09,26,05,08,12.60
2016,09,26,05,09,12.60
2016,09,26,05,10,12.50
2016,09,26,05,11,12.50
2016,09,26,05,12,12.50
2016,09,26,05,13,12.40
2016,09,26,05,14,12.40
2016,09,26,05,15,12.40
2016,09,26,05,16,12.40
2016,09,26,05,17,12.40
2016,09,26,05,18,12.40
2016,09,26,05,19,12.40
2016,09,26,05,20,12.40
2016,09,26,05,21,12.40
2016,09,26,05,22,12.40
2016,09,26,05,23,12.40
2016,09,26,05,24,12.40
2016,09,26,05,25,12.40
2016,09,26,05,26,12.40
2016,09,26,05,27,12.40
2016,09,26,05,28,12.40
2016,09,26,05,29,12.40
2016,09,26,05,30,12.40
2016,09,26,05,31,12.40
2016,09,26,05,32,12.40
2016,09,26,05,33,12.40
2016,09,26,05,34,12.40
2016,09,26,05,35,12.40
2016,09,26,05,36,12.40
2016,09,26,05,37,12.50
2016,09,26,05,38,12.50
2016,09,26,05,39,12.50
2016,09,26,05,40,12.50
2016,09,26,05,41,12.50
2016,09,26,05,42,12.50
2016,09,26,05,43,12.50
2016,09,26,05,44,12.50
2016,09,26,05,45,12.50
2016,09,26,05,46,12.50
2016,09,26,05,47,12.50
2016,09,26,05,48,12.50
2016,09,26,05,49,12.50
2016,09,26,05,50,12.50
2016,09,26,05,51,12.60
2016,09,26,05,52,12.60
2016,09,26,05,53,12.60
2016,09,26,05,54,12.60
2016,09,26,05,55,12.60
2016,09,26,05,56,12.60
2016,09,26,05,57,12.60
2016,09,26,05,58,12.60
2016,09,26,05,59,12.60
2016,09,26,06,00,12.70
2016,09,26,06,01,12.70
2016,09,26,06,02,12.70
2016,09,26,06,03,12.70
2016,09,26,06,04,12.70
2016,09,26,06,05,12.70
2016,09,26,06,06,12.70
2016,09,26,06,07,12.70
2016,09,26,06,08,12.70
2016,09,26,06,09,12.70
2016,09,26,06,10,12.70
2016,09,26,06,11,12.70
2016,09,26,06,12,12.70
2016,09,26,06,13,12.70
2016,09,26,06,14,12.70
2016,09,26,06,15,12.70
2016,09,26,06,16,12.70
2016,09,26,06,17,12.70
2016,09,26,06,18,12.70
2016,09,26,06,19,12.70
2016,09,26,06,20,12.70
2016,09,26,06,21,12.70
2016,09,26,06,22,12.70
2016,09,26,06,23,12.60
2016,09,26,06,24,12.60
2016,09,26,06,25,12.60
2016,09,26,06,26,12.60
2016,09,26,06,27,12.60
2016,09,26,06,28,12.60
2016,09,26,06,29,12.60
2016,09,26,06,30,12.60
2016,09,26,06,31,12.60
2016,09,26,06,32,12.60
2016,09,26,06,33,12.60
2016,09,26,06,34,12.60
2016,09,26,06,35,12.60
2016,09,26,06,36,12.60
2016,09,26,06,37,12.60
2016,09,26,06,38,12.60
2016,09,26,06,39,12.60
2016,09,26,06,40,12.50
2016,09,26,06,41,12.50
2016,09,26,06,42,12.50
2016,09,26,06,43,12.50
2016,09,26,06,44,12.50
2016,09,26,06,45,12.50
2016,09,26,06,46,12.40
2016,09,26,06,47,12.40
2016,09,26,06,48,12.40
2016,09,26,06,49,12.40
2016,09,26,06,50,12.40
2016,09,26,06,51,12.40
2016,09,26,06,52,12.40
2016,09,26,06,53,12.30
2016,09,26,06,54,12.30
2016,09,26,06,55,12.30
2016,09,26,06,56,12.30
2016,09,26,06,57,12.30
2016,09,26,06,58,12.40
2016,09,26,06,59,12.40
2016,09,26,07,00,12.40
2016,09,26,07,01,12.40
2016,09,26,07,02,12.40
2016,09,26,07,03,12.40
2016,09,26,07,04,12.40
2016,09,26,07,05,12.40
2016,09,26,07,06,12.40
2016,09,26,07,07,12.30
2016,09,26,07,08,12.30
2016,09,26,07,09,12.30
2016,09,26,07,10,12.30
2016,09,26,07,11,12.30
2016,09,26,07,12,12.30
2016,09,26,07,13,12.30
2016,09,26,07,14,12.30
2016,09,26,07,15,12.40
2016,09,26,07,16,12.40
2016,09,26,07,17,12.40
2016,09,26,07,18,12.40
2016,09,26,07,19,12.40
2016,09,26,07,20,12.40
2016,09,26,07,21,12.40
2016,09,26,07,22,12.40
2016,09,26,07,23,12.40
2016,09,26,07,24,12.40
2016,09,26,07,25,12.40
2016,09,26,07,26,12.40
2016,09,26,07,27,12.40
2016,09,26,07,28,12.40
2016,09,26,07,29,12.40
2016,09,26,07,30,12.40
2016,09,26,07,31,12.40
2016,09,26,07,32,12.40
2016,09,26,07,33,12.40
2016,09,26,07,34,12.40
2016,09,26,07,35,12.50
2016,09,26,07,36,12.50
2016,09,26,07,37,12.50
2016,09,26,07,38,12.50
2016,09,26,07,39,12.50
2016,09,26,07,40,12.50
2016,09,26,07,41,12.50
2016,09,26,07,42,12.50
2016,09,26,07,43,12.60
2016,09,26,07,44,12.60
2016,09,26,07,45,12.60
2016,09,26,07,46,12.60
2016,09,26,07,47,12.60
2016,09,26,07,48,12.60
2016,09,26,07,49,12.60
2016,09,26,07,50,12.70
2016,09,26,07,51,12.70
2016,09,26,07,52,12.70
2016,09,26,07,53,12.70
2016,09,26,07,54,12.80
2016,09,26,07,55,12.80
2016,09,26,07,56,12.80
2016,09,26,07,57,12.80
2016,09,26,07,58,12.80
2016,09,26,07,59,12.80
2016,09,26,08,00,12.90
2016,09,26,08,01,12.80
2016,09,26,08,02,12.80
2016,09,26,08,03,12.80
2016,09,26,08,04,12.80
2016,09,26,08,05,12.80
2016,09,26,08,06,12.80
2016,09,26,08,07,12.80
2016,09,26,08,08,12.80
2016,09,26,08,09,12.80
2016,09,26,08,10,12.80
2016,09,26,08,11,12.90
2016,09,26,08,12,12.90
2016,09,26,08,13,12.90
2016,09,26,08,14,13.00
2016,09,26,08,15,13.10
2016,09,26,08,16,13.10
2016,09,26,08,17,13.20
2016,09,26,08,18,13.20
2016,09,26,08,19,13.30
2016,09,26,08,20,13.30
2016,09,26,08,21,13.40
2016,09,26,08,22,13.40
2016,09,26,08,23,13.50
2016,09,26,08,24,13.50
2016,09,26,08,25,13.60
2016,09,26,08,26,13.60
2016,09,26,08,27,13.70
2016,09,26,08,28,13.70
2016,09,26,08,29,13.70
2016,09,26,08,30,13.80
2016,09,26,08,31,13.80
2016,09,26,08,32,13.80
2016,09,26,08,33,13.90
2016,09,26,08,34,13.90
2016,09,26,08,35,13.90
2016,09,26,08,36,14.00
2016,09,26,08,37,14.00
2016,09,26,08,38,14.00
2016,09,26,08,39,14.00
2016,09,26,08,40,14.10
2016,09,26,08,41,14.10
2016,09,26,08,42,14.10
2016,09,26,08,43,14.10
2016,09,26,08,44,14.10
2016,09,26,08,45,14.10
2016,09,26,08,46,14.20
2016,09,26,08,47,14.20
2016,09,26,08,48,14.20
2016,09,26,08,49,14.20
2016,09,26,08,50,14.20
2016,09,26,08,51,14.30
2016,09,26,08,52,14.30
2016,09,26,08,53,14.30
2016,09,26,08,54,14.40
2016,09,26,08,55,14.40
2016,09,26,08,56,14.40
2016,09,26,08,57,14.40
2016,09,26,08,58,14.50
2016,09,26,08,59,14.50
2016,09,26,09,00,14.60
2016,09,26,09,01,14.60
2016,09,26,09,02,14.60
2016,09,26,09,03,14.60
2016,09,26,09,04,14.70
2016,09,26,09,05,14.70
2016,09,26,09,06,14.70
2016,09,26,09,07,14.70
2016,09,26,09,08,14.80
2016,09,26,09,09,14.80
2016,09,26,09,10,14.90
2016,09,26,09,11,14.90
2016,09,26,09,12,14.90
2016,09,26,09,13,14.90
2016,09,26,09,14,15.00
2016,09,26,09,15,15.00
2016,09,26,09,16,15.10
2016,09,26,09,17,15.10
2016,09,26,09,18,15.10
2016,09,26,09,19,15.20
2016,09,26,09,20,15.20
2016,09,26,09,21,15.20
2016,09,26,09,22,15.30
2016,09,26,09,23,15.30
2016,09,26,09,24,15.40
2016,09,26,09,25,15.40
2016,09,26,09,26,15.40
2016,09,26,09,27,15.40
2016,09,26,09,28,15.40
2016,09,26,09,29,15.40
2016,09,26,09,30,15.40
2016,09,26,09,31,15.40
2016,09,26,09,32,15.40
2016,09,26,09,33,15.40
2016,09,26,09,34,15.30
2016,09,26,09,35,15.30
2016,09,26,09,36,15.30
2016,09,26,09,37,15.30
2016,09,26,09,38,15.30
2016,09,26,09,39,15.30
2016,09,26,09,40,15.30
2016,09,26,09,41,15.30
2016,09,26,09,42,15.30
2016,09,26,09,43,15.30
2016,09,26,09,44,15.30
2016,09,26,09,45,15.30
2016,09,26,09,46,15.30
2016,09,26,09,47,15.40
2016,09,26,09,48,15.40
2016,09,26,09,49,15.40
2016,09,26,09,50,15.50
2016,09,26,09,51,15.50
2016,09,26,09,52,15.50
2016,09,26,09,53,15.60
2016,09,26,09,54,15.60
2016,09,26,09,55,15.70
2016,09,26,09,56,15.70
2016,09,26,09,57,15.70
2016,09,26,09,58,15.70
2016,09,26,09,59,15.80
2016,09,26,10,00,15.80
2016,09,26,10,01,15.80
2016,09,26,10,02,15.90
2016,09,26,10,03,15.90
2016,09,26,10,04,15.90
2016,09,26,10,05,15.90
2016,09,26,10,06,15.90
2016,09,26,10,07,15.90
2016,09,26,10,08,16.00
2016,09,26,10,09,16.00
2016,09,26,10,10,16.10
2016,09,26,10,11,16.10
2016,09,26,10,12,16.10
2016,09,26,10,13,16.00
2016,09,26,10,14,16.00
2016,09,26,10,15,15.90
2016,09,26,10,16,15.80
2016,09,26,10,17,15.70
2016,09,26,10,18,15.60
2016,09,26,10,19,15.60
2016,09,26,10,20,15.50
2016,09,26,10,21,15.50
2016,09,26,10,22,15.60
2016,09,26,10,23,15.60
2016,09,26,10,24,15.60
2016,09,26,10,25,15.70
2016,09,26,10,26,15.70
2016,09,26,10,27,15.70
2016,09,26,10,28,15.80
2016,09,26,10,29,15.80
2016,09,26,10,30,15.90
2016,09,26,10,31,15.90
2016,09,26,10,32,15.90
2016,09,26,10,33,16.00
2016,09,26,10,34,16.00
2016,09,26,10,35,16.10
2016,09,26,10,36,16.10
2016,09,26,10,37,16.20
2016,09,26,10,38,16.20
2016,09,26,10,39,16.20
2016,09,26,10,40,16.30
2016,09,26,10,41,16.30
2016,09,26,10,42,16.30
2016,09,26,10,43,16.30
2016,09,26,10,44,16.40
2016,09,26,10,45,16.40
2016,09,26,10,46,16.40
2016,09,26,10,47,16.40
2016,09,26,10,48,16.40
2016,09,26,10,49,16.40
2016,09,26,10,50,16.40
2016,09,26,10,51,16.40
2016,09,26,10,52,16.40
2016,09,26,10,53,16.40
2016,09,26,10,54,16.40
2016,09,26,10,55,16.40
2016,09,26,10,56,16.60
2016,09,26,10,57,16.60
2016,09,26,10,58,16.60
2016,09,26,10,59,16.70
2016,09,26,11,00,16.70
2016,09,26,11,01,16.70
2016,09,26,11,02,16.70
2016,09,26,11,03,16.70
2016,09,26,11,04,16.70
2016,09,26,11,05,16.80
2016,09,26,11,06,16.80
2016,09,26,11,07,16.80
2016,09,26,11,08,16.80
2016,09,26,11,09,16.90
2016,09,26,11,10,16.90
2016,09,26,11,11,16.90
2016,09,26,11,12,16.90
2016,09,26,11,13,16.90
2016,09,26,11,14,16.90
2016,09,26,11,15,17.00
2016,09,26,11,16,17.00
2016,09,26,11,17,17.10
2016,09,26,11,18,17.10
2016,09,26,11,19,17.20
2016,09,26,11,20,17.20
2016,09,26,11,21,17.20
2016,09,26,11,22,17.20
2016,09,26,11,23,17.20
2016,09,26,11,24,17.20
2016,09,26,11,25,17.20
2016,09,26,11,26,17.30
2016,09,26,11,27,17.30
2016,09,26,11,28,17.30
2016,09,26,11,29,17.30
2016,09,26,11,30,17.40
2016,09,26,11,31,17.40
2016,09,26,11,32,17.40
2016,09,26,11,33,17.50
2016,09,26,11,34,17.60
2016,09,26,11,35,17.70
2016,09,26,11,36,17.80
2016,09,26,11,37,17.80
2016,09,26,11,38,17.90
2016,09,26,11,39,17.90
2016,09,26,11,40,17.90
2016,09,26,11,41,18.00
2016,09,26,11,42,18.00
2016,09,26,11,43,18.10
2016,09,26,11,44,18.10
2016,09,26,11,45,18.10
2016,09,26,11,46,18.20
2016,09,26,11,47,18.20
2016,09,26,11,48,18.20
2016,09,26,11,49,18.20
2016,09,26,11,50,18.30
2016,09,26,11,51,18.30
2016,09,26,11,52,18.30
2016,09,26,11,53,18.30
2016,09,26,11,54,18.30
2016,09,26,11,55,18.30
2016,09,26,11,56,18.30
2016,09,26,11,57,18.30
2016,09,26,11,58,18.20
2016,09,26,11,59,18.20
2016,09,26,12,00,18.20
2016,09,26,12,01,18.10
2016,09,26,12,02,18.10
2016,09,26,12,03,18.10
2016,09,26,12,04,18.20
2016,09,26,12,05,18.10
2016,09,26,12,06,18.10
2016,09,26,12,07,18.10
2016,09,26,12,08,18.10
2016,09,26,12,09,18.00
2016,09,26,12,10,18.00
2016,09,26,12,11,18.00
2016,09,26,12,12,17.90
2016,09,26,12,13,17.90
2016,09,26,12,14,17.80
2016,09,26,12,15,17.80
2016,09,26,12,16,17.70
2016,09,26,12,17,17.70
2016,09,26,12,18,17.60
2016,09,26,12,19,17.50
2016,09,26,12,20,17.50
2016,09,26,12,21,17.50
2016,09,26,12,22,17.50
2016,09,26,12,23,17.60
2016,09,26,12,24,17.60
2016,09,26,12,25,17.60
2016,09,26,12,26,17.70
2016,09,26,12,27,17.70
2016,09,26,12,28,17.80
2016,09,26,12,29,17.80
2016,09,26,12,30,17.80
2016,09,26,12,31,17.80
2016,09,26,12,32,17.80
2016,09,26,12,33,17.80
2016,09,26,12,34,17.90
2016,09,26,12,35,17.90
2016,09,26,12,36,17.80
2016,09,26,12,37,17.80
2016,09,26,12,38,17.70
2016,09,26,12,39,17.60
2016,09,26,12,40,17.60
2016,09,26,12,41,17.50
2016,09,26,12,42,17.50
2016,09,26,12,43,17.40
2016,09,26,12,44,17.40
2016,09,26,12,45,17.40
2016,09,26,12,46,17.50
2016,09,26,12,47,17.50
2016,09,26,12,48,17.50
2016,09,26,12,49,17.60
2016,09,26,12,50,17.60
2016,09,26,12,51,17.60
2016,09,26,12,52,17.60
2016,09,26,12,53,17.60
2016,09,26,12,54,17.50
2016,09,26,12,55,17.50
2016,09,26,12,56,17.40
2016,09,26,12,57,17.40
2016,09,26,12,58,17.30
2016,09,26,12,59,17.30
2016,09,26,13,00,17.30
2016,09,26,13,01,17.30
2016,09,26,13,02,17.30
2016,09,26,13,03,17.30
2016,09,26,13,04,17.30
2016,09,26,13,05,17.30
2016,09,26,13,06,17.30
2016,09,26,13,07,17.30
2016,09,26,13,08,17.30
2016,09,26,13,09,17.30
2016,09,26,13,10,17.30
2016,09,26,13,11,17.30
2016,09,26,13,12,17.30
2016,09,26,13,13,17.30
2016,09,26,13,14,17.30
2016,09,26,13,15,17.40
2016,09,26,13,16,17.40
2016,09,26,13,17,17.50
2016,09,26,13,18,17.50
2016,09,26,13,19,17.60
2016,09,26,13,20,17.60
2016,09,26,13,21,17.70
2016,09,26,13,22,17.80
2016,09,26,13,23,17.80
2016,09,26,13,24,17.90
2016,09,26,13,25,17.90
2016,09,26,13,26,18.00
2016,09,26,13,27,18.00
2016,09,26,13,28,18.10
2016,09,26,13,29,18.10
2016,09,26,13,30,18.20
2016,09,26,13,31,18.20
2016,09,26,13,32,18.30
2016,09,26,13,33,18.30
2016,09,26,13,34,18.30
2016,09,26,13,35,18.30
2016,09,26,13,36,18.20
2016,09,26,13,37,18.30
2016,09,26,13,38,18.30
2016,09,26,13,39,18.20
2016,09,26,13,40,18.20
2016,09,26,13,41,18.20
2016,09,26,13,42,18.20
2016,09,26,13,43,18.20
2016,09,26,13,44,18.20
2016,09,26,13,45,18.20
2016,09,26,13,46,18.20
2016,09,26,13,47,18.20
2016,09,26,13,48,18.20
2016,09,26,13,49,18.20
2016,09,26,13,50,18.20
2016,09,26,13,51,18.20
2016,09,26,13,52,18.20
2016,09,26,13,53,18.20
2016,09,26,13,54,18.20
2016,09,26,13,55,18.20
2016,09,26,13,56,18.30
2016,09,26,13,57,18.30
2016,09,26,13,58,18.30
2016,09,26,13,59,18.30
2016,09,26,14,00,18.40
2016,09,26,14,01,18.40
2016,09,26,14,02,18.40
2016,09,26,14,03,18.40
2016,09,26,14,04,18.40
2016,09,26,14,05,18.30
2016,09,26,14,06,18.30
2016,09,26,14,07,18.30
2016,09,26,14,08,18.30
2016,09,26,14,09,18.30
2016,09,26,14,10,18.30
2016,09,26,14,11,18.30
2016,09,26,14,12,18.30
2016,09,26,14,13,18.30
2016,09,26,14,14,18.30
2016,09,26,14,15,18.30
2016,09,26,14,16,18.20
2016,09,26,14,17,18.20
2016,09,26,14,18,18.20
2016,09,26,14,19,18.20
2016,09,26,14,20,18.30
2016,09,26,14,21,18.30
2016,09,26,14,22,18.20
2016,09,26,14,23,18.20
2016,09,26,14,24,18.20
2016,09,26,14,25,18.20
2016,09,26,14,26,18.20
2016,09,26,14,27,18.20
2016,09,26,14,28,18.20
2016,09,26,14,29,18.20
2016,09,26,14,30,18.20
2016,09,26,14,31,18.20
2016,09,26,14,32,18.20
2016,09,26,14,33,18.30
2016,09,26,14,34,18.30
2016,09,26,14,35,18.30
2016,09,26,14,36,18.30
2016,09,26,14,37,18.30
2016,09,26,14,38,18.30
2016,09,26,14,39,18.20
2016,09,26,14,40,18.20
2016,09,26,14,41,18.20
2016,09,26,14,42,18.20
2016,09,26,14,43,18.20
2016,09,26,14,44,18.20
2016,09,26,14,45,18.20
2016,09,26,14,46,18.20
2016,09,26,14,47,18.20
2016,09,26,14,48,18.20
2016,09,26,14,49,18.30
2016,09,26,14,50,18.30
2016,09,26,14,51,18.30
2016,09,26,14,52,18.30
2016,09,26,14,53,18.30
2016,09,26,14,54,18.30
2016,09,26,14,55,18.30
2016,09,26,14,56,18.30
2016,09,26,14,57,18.30
2016,09,26,14,58,18.30
2016,09,26,14,59,18.40
2016,09,26,15,00,18.40
2016,09,26,15,01,18.40
2016,09,26,15,02,18.40
2016,09,26,15,03,18.30
2016,09,26,15,04,18.30
2016,09,26,15,05,18.30
2016,09,26,15,06,18.30
2016,09,26,15,07,18.30
2016,09,26,15,08,18.30
2016,09,26,15,09,18.30
2016,09,26,15,10,18.30
2016,09,26,15,11,18.30
2016,09,26,15,12,18.30
2016,09,26,15,13,18.30
2016,09,26,15,14,18.30
2016,09,26,15,15,18.30
2016,09,26,15,16,18.20
2016,09,26,15,17,18.20
2016,09,26,15,18,18.20
2016,09,26,15,19,18.20
2016,09,26,15,20,18.20
2016,09,26,15,21,18.20
2016,09,26,15,22,18.10
2016,09,26,15,23,18.10
2016,09,26,15,24,18.10
2016,09,26,15,25,18.10
2016,09,26,15,26,18.10
2016,09,26,15,27,18.10
2016,09,26,15,28,18.10
2016,09,26,15,29,18.10
2016,09,26,15,30,18.10
2016,09,26,15,31,18.10
2016,09,26,15,32,18.10
2016,09,26,15,33,18.10
2016,09,26,15,34,18.10
2016,09,26,15,35,18.10
2016,09,26,15,36,18.10
2016,09,26,15,37,18.10
2016,09,26,15,38,18.10
2016,09,26,15,39,18.10
2016,09,26,15,40,18.10
2016,09,26,15,41,18.10
2016,09,26,15,42,18.10
2016,09,26,15,43,18.10
2016,09,26,15,44,18.10
2016,09,26,15,45,18.10
2016,09,26,15,46,18.10
2016,09,26,15,47,18.10
2016,09,26,15,48,18.10
2016,09,26,15,49,18.10
2016,09,26,15,50,18.10
2016,09,26,15,51,18.20
2016,09,26,15,52,18.20
2016,09,26,15,53,18.20
2016,09,26,15,54,18.10
2016,09,26,15,55,18.10
2016,09,26,15,56,18.10
2016,09,26,15,57,18.10
2016,09,26,15,58,18.10
2016,09,26,15,59,18.10
2016,09,26,16,00,18.10
2016,09,26,16,01,18.00
2016,09,26,16,02,18.00
2016,09,26,16,03,18.00
2016,09,26,16,04,18.00
2016,09,26,16,05,18.00
2016,09,26,16,06,18.10
2016,09,26,16,07,18.10
2016,09,26,16,08,18.10
2016,09,26,16,09,18.10
2016,09,26,16,10,18.10
2016,09,26,16,11,18.10
2016,09,26,16,12,18.10
2016,09,26,16,13,18.10
2016,09,26,16,14,18.10
2016,09,26,16,15,18.10
2016,09,26,16,16,18.10
2016,09,26,16,17,18.10
2016,09,26,16,18,18.10
2016,09,26,16,19,18.10
2016,09,26,16,20,18.10
2016,09,26,16,21,18.10
2016,09,26,16,22,18.20
2016,09,26,16,23,18.20
2016,09,26,16,24,18.10
2016,09,26,16,25,18.10
2016,09,26,16,26,18.10
2016,09,26,16,27,18.10
2016,09,26,16,28,18.00
2016,09,26,16,29,18.00
2016,09,26,16,30,17.90
2016,09,26,16,31,17.90
2016,09,26,16,32,17.90
2016,09,26,16,33,17.90
2016,09,26,16,34,17.90
2016,09,26,16,35,17.90
2016,09,26,16,36,17.90
2016,09,26,16,37,17.90
2016,09,26,16,38,17.90
2016,09,26,16,39,17.90
2016,09,26,16,40,17.90
2016,09,26,16,41,17.80
2016,09,26,16,42,17.80
2016,09,26,16,43,17.70
2016,09,26,16,44,17.70
2016,09,26,16,45,17.70
2016,09,26,16,46,17.60
2016,09,26,16,47,17.60
2016,09,26,16,48,17.60
2016,09,26,16,49,17.50
2016,09,26,16,50,17.50
2016,09,26,16,51,17.40
2016,09,26,16,52,17.30
2016,09,26,16,53,17.20
2016,09,26,16,54,17.10
2016,09,26,16,55,17.00
2016,09,26,16,56,17.00
2016,09,26,16,57,16.90
2016,09,26,16,58,16.80
2016,09,26,16,59,16.80
2016,09,26,17,00,16.70
2016,09,26,17,01,16.70
2016,09,26,17,02,16.70
2016,09,26,17,03,16.70
2016,09,26,17,04,16.70
2016,09,26,17,05,16.70
2016,09,26,17,06,16.70
2016,09,26,17,07,16.80
2016,09,26,17,08,16.80
2016,09,26,17,09,16.80
2016,09,26,17,10,16.90
2016,09,26,17,11,16.90
2016,09,26,17,12,16.90
2016,09,26,17,13,16.90
2016,09,26,17,14,16.90
2016,09,26,17,15,16.90
2016,09,26,17,16,16.80
2016,09,26,17,17,16.80
2016,09,26,17,18,16.80
2016,09,26,17,19,16.80